Погода в Кечкемете

Венгрия     46°54′09″N   19°41′02″E
темп.,
°C
ветер,
м/с
пор.,
м/с
влажн.,
%
обл.,
%
осадки,
мм/ч
давл.,
гПа
погр.,
м
20 июня, вс
вс2023:00+21вюв11700 0.0 101411
02:00+19св22705 0.0 101411
05:00+18в23830 0.0 101331
08:00+22в23690 0.0 1014316
11:00+27всв33530 0.0 1013988
14:00+29ссв33450 0.0 10121573
17:00+29св34440 0.0 10111754
20:00+25в22600 0.0 101018
21 июня, пн
пн2123:00+22в2262100 0.3 101013
02:00+20ююв11660 0.3 100911
05:00+20юв22681 0.0 100911
08:00+24юв34590 0.0 1009301
11:00+29юв344677 0.0 10091111
14:00+32ююв443935 0.0 10072101
17:00+32ю344048 0.0 10061837
20:00+27вюв47594 0.0 1006104
22 июня, вт
вт2223:00+24юв714655 0.1 1007304
02:00+21ююв488110 0.1 1007150
05:00+19юв3382100 0.0 100740
08:00+24ююв116173 0.0 1009320
11:00+29юв12470 0.0 1009924
14:00+32с12380 0.0 10091519
17:00+33зсз23370 0.0 10091988
20:00+28ссв22570 0.0 100922
23 июня, ср
ср2323:00+24в33620 0.0 101030
02:00+22ююв22690 0.0 101111
05:00+22ююв11680 0.0 101111
08:00+26з445615 0.0 1012359
11:00+29з55490 0.0 1014749
14:00+32зсз55390 0.0 10141238
17:00+32зсз56370 0.0 10141339
20:00+26зсз36580 0.0 101594
24 июня, чт
чт2423:00+23зсз33620 0.0 101521
02:00+21сз11625 0.1 101511
05:00+21св33672 0.1 101518
08:00+26вюв22540 0.1 1015218
11:00+32всв22390 0.0 1015770
14:00+35юв23335 0.0 10141724
17:00+36ююв45310 0.0 10122215
20:00+31ю344925 0.0 101161